Karlovy Vary, Czech Republic

12:32 AM CEST on March 27, 2017 (GMT +0200)
Karlovy Vary

Weather History for LKKV - November, 2013

Change the Weather History Date:

Sunday, November 10, 2013

  Actual Average (EDQM) Record (EDQM)
Temperature  
Mean Temperature 38 °F -  
Max Temperature 42 °F 40 °F 55 °F (2015)
Min Temperature 33 °F 33 °F 24 °F (2001)
Degree Days  
Heating Degree Days 28    
Moisture  
Dew Point 35 °F    
Average Humidity 85    
Maximum Humidity 93    
Minimum Humidity 76    
Precipitation  
Precipitation 0.00 in - - ()
Sea Level Pressure  
Sea Level Pressure 29.69 in    
Wind  
Wind Speed 5 mph ()    
Max Wind Speed 12 mph    
Max Gust Speed -    
Visibility 6.2 miles    
Events Rain    
Averages and records for this station are not official NWS values.
T = Trace of Precipitation, MM = Missing Value Source: Averaged Metar Reports

Daily Weather History Graph

Daily Weather History Graph

Search for Another Location

Airport or City:

Trip Planner

Search our weather history database for the weather conditions in past years. The results will help you decide how hot, cold, wet, or windy it might be!

Date:

Astronomy

Nov. 10, 2013 Rise Set
Actual Time 7:13 AM CET 4:30 PM CET
Civil Twilight 6:38 AM CET 5:05 PM CET
Nautical Twilight 5:59 AM CET 5:44 PM CET
Astronomical Twilight 5:21 AM CET 6:22 PM CET
Moon 1:05 PM CET (11/10) No Moon Set
Length of Visible Light 10h 26m
Length of Day
9h 16m
First Quarter, 52% of the Moon is Illuminated
Nov 10
First Quarter
Nov 17
Full
Nov 25
Last Quarter
Dec 3
New
Dec 9
First Quarter

Hourly Weather History & Observations

Time (CET) Temp. Windchill Dew Point Humidity Pressure Visibility Wind Dir Wind Speed Gust Speed Precip Events Conditions
12:00 AM 33.8 °F - 32.0 °F 93% 29.80 in - Variable 2.3 mph - N/A   Clear
1:00 AM 37.4 °F 34.9 °F 33.8 °F 87% 29.77 in - South 3.5 mph - N/A   Clear
2:00 AM 37.4 °F 34.9 °F 35.6 °F 93% 29.74 in - Variable 3.5 mph - N/A   Clear
3:00 AM 39.2 °F 35.0 °F 35.6 °F 87% 29.71 in - South 5.8 mph - N/A   Clear
4:00 AM 39.2 °F 33.6 °F 35.6 °F 87% 29.68 in - SSW 8.1 mph - N/A   Clear
5:00 AM 39.2 °F 33.6 °F 35.6 °F 87% 29.65 in 6.2 mi SSW 8.1 mph - N/A   Mostly Cloudy
5:20 AM 39.2 °F 34.2 °F 35.6 °F 87% 29.65 in 6.2 mi SSW 6.9 mph - N/A   Light Drizzle
6:00 AM 39.2 °F 33.6 °F 35.6 °F 87% 29.65 in 6.2 mi SSW 8.1 mph - N/A   Light Drizzle
6:13 AM 39.2 °F 34.2 °F 35.6 °F 87% 29.62 in 6.2 mi SSW 6.9 mph - N/A Rain Light Rain
7:00 AM 39.2 °F 35.0 °F 37.4 °F 93% 29.62 in 6.2 mi SSW 5.8 mph - N/A   Mostly Cloudy
7:30 AM 41.0 °F 36.4 °F 37.4 °F 87% 29.62 in 6.2 mi SSW 6.9 mph - N/A   Mostly Cloudy
8:00 AM 41.0 °F 35.8 °F 35.6 °F 81% 29.62 in 6.2 mi SW 8.1 mph - N/A   Scattered Clouds
8:30 AM 41.0 °F 38.0 °F 35.6 °F 81% 29.62 in 6.2 mi SW 4.6 mph - N/A   Mostly Cloudy
9:00 AM 41.0 °F 39.0 °F 35.6 °F 81% 29.62 in 6.2 mi SSW 3.5 mph - N/A   Mostly Cloudy
9:30 AM 42.8 °F 41.1 °F 37.4 °F 81% 29.59 in 6.2 mi SSW 3.5 mph - N/A   Mostly Cloudy
10:00 AM 42.8 °F 39.3 °F 35.6 °F 76% 29.59 in 6.2 mi West 5.8 mph - N/A   Mostly Cloudy
10:30 AM 42.8 °F 38.6 °F 35.6 °F 76% 29.59 in 6.2 mi West 6.9 mph - N/A   Mostly Cloudy
11:00 AM 42.8 °F 38.6 °F 35.6 °F 76% 29.59 in 6.2 mi WSW 6.9 mph - N/A   Mostly Cloudy
11:30 AM 42.8 °F 41.1 °F 37.4 °F 81% 29.59 in 6.2 mi WSW 3.5 mph - N/A   Mostly Cloudy
11:42 AM 42.8 °F 40.1 °F 35.6 °F 76% 29.59 in 6.2 mi WNW 4.6 mph - N/A Rain Light Rain
12:00 PM 42.8 °F 39.3 °F 37.4 °F 81% 29.59 in 6.2 mi West 5.8 mph - N/A Rain Light Rain
12:30 PM 42.8 °F 39.3 °F 37.4 °F 81% 29.59 in 6.2 mi West 5.8 mph - N/A Rain Light Rain
1:00 PM 42.8 °F 40.1 °F 37.4 °F 81% 29.59 in 6.2 mi West 4.6 mph - N/A Rain Light Rain
1:30 PM 42.8 °F 40.1 °F 39.2 °F 87% 29.59 in 6.2 mi West 4.6 mph - N/A Rain Light Rain
2:00 PM 39.2 °F 34.2 °F 37.4 °F 93% 29.62 in 6.2 mi NW 6.9 mph - N/A Rain Light Rain
2:30 PM 39.2 °F 37.0 °F 37.4 °F 93% 29.62 in 6.2 mi WNW 3.5 mph - N/A Rain Light Rain
3:00 PM 39.2 °F - 37.4 °F 93% 29.62 in 6.2 mi Variable 1.2 mph - N/A Rain Light Rain
3:30 PM 39.2 °F 35.9 °F 37.4 °F 93% 29.65 in 6.2 mi WNW 4.6 mph - N/A Rain Light Rain
4:00 PM 37.4 °F 31.4 °F 35.6 °F 93% 29.68 in 6.2 mi NW 8.1 mph - N/A Rain Light Rain
4:30 PM 37.4 °F 32.1 °F 33.8 °F 87% 29.68 in 6.2 mi NNW 6.9 mph - N/A Rain Light Rain
5:00 PM 37.4 °F 31.4 °F 33.8 °F 87% 29.71 in 6.2 mi North 8.1 mph - N/A   Mostly Cloudy
5:30 PM 37.4 °F 30.8 °F 33.8 °F 87% 29.74 in 6.2 mi NNW 9.2 mph - N/A   Mostly Cloudy
6:00 PM 37.4 °F 31.4 °F 33.8 °F 87% 29.77 in 6.2 mi NNW 8.1 mph - N/A   Mostly Cloudy
6:30 PM 37.4 °F 32.8 °F 32.0 °F 81% 29.80 in 6.2 mi NNW 5.8 mph - N/A   Mostly Cloudy
7:00 PM 37.4 °F 29.8 °F 32.0 °F 81% 29.83 in 6.2 mi NW 11.5 mph - N/A   Scattered Clouds
7:30 PM 37.4 °F 30.8 °F 32.0 °F 81% 29.83 in 6.2 mi NW 9.2 mph - N/A   Mostly Cloudy
8:00 PM 37.4 °F 32.1 °F 32.0 °F 81% 29.86 in 6.2 mi NW 6.9 mph - N/A   Mostly Cloudy
9:00 PM 37.4 °F 32.1 °F 32.0 °F 81% 29.89 in 6.2 mi NW 6.9 mph - N/A   Overcast
10:00 PM 37.4 °F 32.1 °F 32.0 °F 81% 29.95 in 6.2 mi NW 6.9 mph - N/A   Mostly Cloudy
11:00 PM 37.4 °F 32.1 °F 32.0 °F 81% 29.98 in 6.2 mi NW 6.9 mph - N/A   Overcast